Weather History for KFBL - July, 2013

Change the Weather History Date:

Sunday, July 14, 2013

  Actual Average Record
Temperature  
Mean Temperature 75 °F -  
Max Temperature 84 °F 84 °F 99 °F (1974)
Min Temperature 66 °F 60 °F 49 °F (1975)
Cooling Degree Days 10    
Growing Degree Days 25 (Base 50)    
Moisture  
Dew Point 66 °F    
Average Humidity 73    
Maximum Humidity 94    
Minimum Humidity 51    
Precipitation  
Precipitation 0.00 in - - ()
Sea Level Pressure  
Sea Level Pressure 30.14 in    
Wind  
Wind Speed 7 mph (SSE)    
Max Wind Speed 15 mph    
Max Gust Speed 20 mph    
Visibility 10 miles    
Events      
Averages and records for this station are not official NWS values.
T = Trace of Precipitation, MM = Missing Value Source: NWS Daily Summary

Daily Weather History Graph

Daily Weather History Graph

Search for Another Location

Airport or City:

Trip Planner

Search our weather history database for the weather conditions in past years. The results will help you decide how hot, cold, wet, or windy it might be!

Date:

Astronomy

Jul. 14, 2013 Rise Set
Actual Time 5:42 AM CDT 8:55 PM CDT
Civil Twilight 5:07 AM CDT 9:30 PM CDT
Nautical Twilight 4:21 AM CDT 10:16 PM CDT
Astronomical Twilight 3:25 AM CDT 11:11 PM CDT
Moon 12:16 PM CDT (7/14) 11:50 PM CDT (7/14)
Length of Visible Light 16h 23m
Length of Day
15h 12m
Waxing Crescent, 35% of the Moon is Illuminated
Jul 14
Waxing Crescent
Jul 15
First Quarter
Jul 22
Full
Jul 29
Last Quarter
Aug 6
New

Hourly Weather History & Observations

Time (CDT) Temp. Heat Index Dew Point Humidity Pressure Visibility Wind Dir Wind Speed Gust Speed Precip Events Conditions
12:14 AM 68.0 °F - 62.6 °F 83% 30.10 in 10.0 mi SSE 5.8 mph - N/A   Clear
12:34 AM 66.2 °F - 62.6 °F 88% 30.11 in 10.0 mi South 3.5 mph - N/A   Clear
12:54 AM 66.2 °F - 64.4 °F 94% 30.10 in 10.0 mi South 4.6 mph - N/A   Clear
1:14 AM 66.2 °F - 64.4 °F 94% 30.10 in 10.0 mi SSE 4.6 mph - N/A   Scattered Clouds
1:34 AM 66.2 °F - 64.4 °F 94% 30.11 in 10.0 mi South 5.8 mph - N/A   Overcast
1:54 AM 68.0 °F - 64.4 °F 88% 30.10 in 10.0 mi SSE 9.2 mph - N/A   Overcast
2:14 AM 69.8 °F - 64.4 °F 83% 30.10 in 10.0 mi SSE 8.1 mph - N/A   Overcast
2:34 AM 69.8 °F - 64.4 °F 83% 30.10 in 10.0 mi SSE 6.9 mph - N/A   Overcast
2:54 AM 69.8 °F - 64.4 °F 83% 30.10 in 10.0 mi South 8.1 mph - N/A   Overcast
3:14 AM 69.8 °F - 64.4 °F 83% 30.10 in 10.0 mi South 8.1 mph - N/A   Overcast
3:34 AM 69.8 °F - 64.4 °F 83% 30.09 in 10.0 mi SSE 9.2 mph - N/A   Overcast
3:54 AM 69.8 °F - 64.4 °F 83% 30.09 in 10.0 mi SSE 8.1 mph - N/A   Overcast
4:14 AM 69.8 °F - 64.4 °F 83% 30.08 in 10.0 mi SSE 8.1 mph 16.1 mph N/A   Overcast
4:34 AM 69.8 °F - 64.4 °F 83% 30.08 in 10.0 mi SSE 10.4 mph - N/A   Mostly Cloudy
4:54 AM 69.8 °F - 64.4 °F 83% 30.09 in 10.0 mi SSE 8.1 mph - N/A   Scattered Clouds
5:14 AM 69.8 °F - 62.6 °F 78% 30.09 in 10.0 mi South 8.1 mph - N/A   Clear
5:34 AM 69.8 °F - 64.4 °F 83% 30.10 in 10.0 mi South 8.1 mph - N/A   Clear
5:54 AM 69.8 °F - 62.6 °F 78% 30.11 in 10.0 mi SSE 9.2 mph - N/A   Scattered Clouds
6:14 AM 69.8 °F - 62.6 °F 78% 30.11 in 10.0 mi SSE 10.4 mph - N/A   Overcast
6:34 AM 69.8 °F - 62.6 °F 78% 30.11 in 10.0 mi SSE 10.4 mph 17.3 mph N/A   Overcast
6:54 AM 69.8 °F - 62.6 °F 78% 30.12 in 10.0 mi South 8.1 mph - N/A   Overcast
7:14 AM 69.8 °F - 62.6 °F 78% 30.13 in 10.0 mi SSE 10.4 mph - N/A   Overcast
7:34 AM 69.8 °F - 62.6 °F 78% 30.13 in 10.0 mi SSE 6.9 mph - N/A   Mostly Cloudy
7:54 AM 69.8 °F - 62.6 °F 78% 30.14 in 10.0 mi South 6.9 mph - N/A   Scattered Clouds
8:14 AM 69.8 °F - 62.6 °F 78% 30.15 in 10.0 mi South 5.8 mph - N/A   Scattered Clouds
8:34 AM 71.6 °F - 64.4 °F 78% 30.15 in 10.0 mi South 5.8 mph - N/A   Clear
8:54 AM 73.4 °F - 64.4 °F 73% 30.15 in 10.0 mi South 9.2 mph - N/A   Scattered Clouds
9:14 AM 73.4 °F - 64.4 °F 73% 30.16 in 10.0 mi South 9.2 mph - N/A   Scattered Clouds
9:34 AM 73.4 °F - 66.2 °F 78% 30.16 in 10.0 mi SSE 8.1 mph - N/A   Clear
9:54 AM 75.2 °F - 66.2 °F 73% 30.15 in 10.0 mi SSE 9.2 mph - N/A   Clear
10:13 AM 77.0 °F - 66.2 °F 69% 30.16 in 10.0 mi SSE 13.8 mph 19.6 mph N/A   Clear
10:34 AM 78.8 °F - 66.2 °F 65% 30.16 in 10.0 mi South 12.7 mph 18.4 mph N/A   Clear
10:54 AM 78.8 °F - 66.2 °F 65% 30.16 in 10.0 mi South 15.0 mph - N/A   Clear
11:14 AM 78.8 °F - 66.2 °F 65% 30.16 in 10.0 mi SSE 13.8 mph - N/A   Clear
11:34 AM 78.8 °F - 66.2 °F 65% 30.16 in 10.0 mi SSE 11.5 mph 18.4 mph N/A   Clear
11:54 AM 80.6 °F 82.7 °F 66.2 °F 61% 30.17 in 10.0 mi SSE 11.5 mph - N/A   Clear
12:14 PM 80.6 °F 82.7 °F 66.2 °F 61% 30.17 in 10.0 mi South 12.7 mph - N/A   Clear
12:34 PM 80.6 °F 82.7 °F 66.2 °F 61% 30.17 in 10.0 mi SSE 13.8 mph - N/A   Clear
12:54 PM 80.6 °F 82.7 °F 66.2 °F 61% 30.16 in 10.0 mi SSE 15.0 mph 18.4 mph N/A   Clear
1:14 PM 80.6 °F 82.7 °F 66.2 °F 61% 30.16 in 10.0 mi SSE 11.5 mph 18.4 mph N/A   Clear
1:34 PM 82.4 °F 84.6 °F 66.2 °F 58% 30.16 in 10.0 mi South 11.5 mph - N/A   Clear
1:53 PM 82.4 °F 84.6 °F 66.2 °F 58% 30.15 in 10.0 mi SSE 9.2 mph - N/A   Clear
2:14 PM 82.4 °F 84.6 °F 66.2 °F 58% 30.16 in 10.0 mi South 11.5 mph - N/A   Clear
2:34 PM 82.4 °F 84.6 °F 66.2 °F 58% 30.15 in 10.0 mi South 9.2 mph - N/A   Clear
2:53 PM 84.2 °F 85.6 °F 64.4 °F 51% 30.15 in 10.0 mi SSE 10.4 mph 18.4 mph N/A   Clear
3:14 PM 84.2 °F 86.6 °F 66.2 °F 55% 30.16 in 10.0 mi SSE 9.2 mph - N/A   Clear
3:34 PM 84.2 °F 86.6 °F 66.2 °F 55% 30.16 in 10.0 mi South 6.9 mph - N/A   Clear
3:54 PM 84.2 °F 86.6 °F 66.2 °F 55% 30.16 in 10.0 mi South 9.2 mph - N/A   Clear
4:14 PM 84.2 °F 86.6 °F 66.2 °F 55% 30.15 in 10.0 mi South 10.4 mph - N/A   Scattered Clouds
4:34 PM 82.4 °F 84.6 °F 66.2 °F 58% 30.15 in 10.0 mi SSE 5.8 mph - N/A   Scattered Clouds
4:54 PM 82.4 °F 84.6 °F 66.2 °F 58% 30.15 in 10.0 mi South 6.9 mph - N/A   Scattered Clouds
5:14 PM 82.4 °F 84.6 °F 66.2 °F 58% 30.15 in 10.0 mi SSE 8.1 mph - N/A   Scattered Clouds
5:33 PM 82.4 °F 84.6 °F 66.2 °F 58% 30.15 in 10.0 mi South 11.5 mph - N/A   Scattered Clouds
5:54 PM 82.4 °F 84.6 °F 66.2 °F 58% 30.15 in 10.0 mi South 4.6 mph - N/A   Clear
6:14 PM 82.4 °F 84.6 °F 66.2 °F 58% 30.15 in 10.0 mi SE 9.2 mph - N/A   Scattered Clouds
6:34 PM 82.4 °F 85.4 °F 68.0 °F 62% 30.15 in 10.0 mi SSE 6.9 mph - N/A   Scattered Clouds
6:54 PM 82.4 °F 85.4 °F 68.0 °F 62% 30.15 in 10.0 mi South 4.6 mph - N/A   Scattered Clouds
7:14 PM 80.6 °F 82.7 °F 66.2 °F 61% 30.15 in 10.0 mi South 9.2 mph - N/A   Scattered Clouds
7:34 PM 80.6 °F 83.2 °F 68.0 °F 65% 30.16 in 10.0 mi South 3.5 mph - N/A   Scattered Clouds
7:54 PM 78.8 °F - 68.0 °F 69% 30.16 in 10.0 mi Calm Calm - N/A   Clear
8:14 PM 78.8 °F - 68.0 °F 69% 30.16 in 10.0 mi Calm Calm - N/A   Clear
8:34 PM 77.0 °F - 69.8 °F 78% 30.16 in 10.0 mi Calm Calm - N/A   Clear
8:54 PM 73.4 °F - 69.8 °F 88% 30.17 in 10.0 mi Calm Calm - N/A   Clear
9:14 PM 73.4 °F - 69.8 °F 88% 30.17 in 10.0 mi Calm Calm - N/A   Clear
9:34 PM 71.6 °F - 69.8 °F 94% 30.18 in 10.0 mi Calm Calm - N/A   Clear
9:54 PM 71.6 °F - 69.8 °F 94% 30.19 in 10.0 mi Calm Calm - N/A   Clear
10:13 PM 73.4 °F - 68.0 °F 83% 30.19 in 10.0 mi Calm Calm - N/A   Clear
10:34 PM 71.6 °F - 68.0 °F 88% 30.20 in 10.0 mi ESE 3.5 mph - N/A   Clear
10:54 PM 71.6 °F - 68.0 °F 88% 30.20 in 10.0 mi ESE 3.5 mph - N/A   Clear
11:14 PM 71.6 °F - 66.2 °F 83% 30.20 in 10.0 mi Calm Calm - N/A   Clear
11:34 PM 69.8 °F - 66.2 °F 88% 30.21 in 10.0 mi SE 3.5 mph - N/A   Clear
11:54 PM 69.8 °F - 66.2 °F 88% 30.21 in 10.0 mi SE 3.5 mph - N/A   Clear